Darstellungsparameter: Aktuell verwendete Einstellungen:
Skalierung der Graphiken ... ?
xyx+y,   Skalierungsfaktor:      Skalierung: Modus: x, Faktor: 1
Darstellungszeitraum ... ?
Vom - - bis: - -   Zeitraum: 20.05.2022 - 20.05.2022
Min/Max/Avg-Anzeige ... ?
Zeige MMA aktuell
Zeige MMA Monat
Zeige MMA alles
Zeige --A aktuell
Zeige --A Monat
Zeige --A alles
Keine MMA-Anzeige
MMA:
Keine MMA-Graphiken
MMA-Basis: 20.05.2022 - 20.05.2022
Quicknavigation für Darstellung... ?
Tage:      1T, 2T, 3T, 5T -1T -2T -3T -5T +1T +2T +3T +5T
Wochen: 1W, 2W, 3W -1W -2W -3W +1W +2W +3W
Monate: 1M, 3M, 6M -1M -3M -6M +1M +3M +6M
Jahre:    1J, 3J, 5J, 10J -1J -3J -5J -10J +1J +3J +5J +10J
Nutze für die Darstellung ... ?
Originaldaten oder Mittelwerte auf ...
Stundenbasis Tagesbasis Wochenbasis
Monatsbasis Jahresbasis      Datenbasis: Original-Daten
Darstellen als:
Statistik (Auto) Statistik J:M      Darstellung:
Zur Graphik,    zurück zur Übersicht aller Sensoren.
 
Tabellarische Datenbersicht: ?
 
Sensor: Nr:Datum:Temp:Abs-Feuchte:Windchill:Wind:
Aussen-T/F 1 20-05-2022 02:00:00 15.8 C 12.92 g/m*3 15.8 C 0 km/h
2 20-05-2022 02:05:00 15.7 C 12.71 g/m*3 15.7 C 0 km/h
3 20-05-2022 02:10:00 15.6 C 12.63 g/m*3 15.6 C 0 km/h
4 20-05-2022 02:15:00 15.5 C 12.69 g/m*3 15.5 C 0 km/h
5 20-05-2022 02:20:00 15.4 C 12.61 g/m*3 15.4 C 0 km/h
6 20-05-2022 02:25:00 15.4 C 12.61 g/m*3 15.4 C 0 km/h
7 20-05-2022 02:30:00 15.4 C 12.61 g/m*3 15.4 C 0 km/h
8 20-05-2022 02:35:00 15.4 C 12.61 g/m*3 15.4 C 0 km/h
9 20-05-2022 02:40:00 15.4 C 12.61 g/m*3 15.4 C 0 km/h
10 20-05-2022 02:45:00 15.4 C 12.61 g/m*3 15.4 C 0 km/h
11 20-05-2022 02:50:00 15.4 C 12.61 g/m*3 15.4 C 0 km/h
12 20-05-2022 02:55:00 15.4 C 12.61 g/m*3 15.4 C 0 km/h
13 20-05-2022 03:00:00 15.4 C 12.61 g/m*3 15.4 C 0 km/h
14 20-05-2022 03:05:00 15.4 C 12.61 g/m*3 15.4 C 0 km/h
15 20-05-2022 03:10:00 15.4 C 12.61 g/m*3 15.4 C 0 km/h
16 20-05-2022 03:15:00 15.4 C 12.61 g/m*3 15.4 C 0 km/h
17 20-05-2022 03:20:00 15.4 C 12.61 g/m*3 15.4 C 0 km/h
18 20-05-2022 03:25:00 15.4 C 12.61 g/m*3 15.4 C 0 km/h
19 20-05-2022 03:30:00 15.5 C 12.69 g/m*3 15.5 C 0 km/h
20 20-05-2022 03:35:00 15.5 C 12.69 g/m*3 15.5 C 0 km/h
21 20-05-2022 03:40:00 15.5 C 12.69 g/m*3 15.5 C 0 km/h
22 20-05-2022 03:45:00 15.6 C 12.77 g/m*3 15.6 C 0 km/h
23 20-05-2022 03:50:00 15.5 C 12.69 g/m*3 15.5 C 0 km/h
24 20-05-2022 03:55:00 15.5 C 12.69 g/m*3 15.5 C 0 km/h
25 20-05-2022 04:25:00 16 C 13.08 g/m*3 16 C 0 km/h
Sensor: Nr:Datum:Temp:Abs-Feuchte:Windchill:Wind:
Aussen-T/F 26 20-05-2022 04:30:00 16.1 C 13.16 g/m*3 16.1 C 0 km/h
27 20-05-2022 04:35:00 16.1 C 13.16 g/m*3 16.1 C 0 km/h
28 20-05-2022 04:40:00 16.2 C 13.24 g/m*3 16.2 C 0 km/h
29 20-05-2022 04:45:00 16.2 C 13.38 g/m*3 16.2 C 0 km/h
30 20-05-2022 04:50:00 16.2 C 13.38 g/m*3 16.2 C 0 km/h
31 20-05-2022 04:55:00 16.3 C 13.46 g/m*3 16.3 C 0 km/h
32 20-05-2022 05:00:00 16.3 C 13.46 g/m*3 16.3 C 0 km/h
33 20-05-2022 05:05:00 16.3 C 13.46 g/m*3 16.3 C 0 km/h
34 20-05-2022 05:10:00 16.4 C 13.54 g/m*3 16.4 C 3.2 km/h
35 20-05-2022 05:15:00 16.4 C 13.54 g/m*3 16.4 C 9.7 km/h
36 20-05-2022 05:20:00 16.4 C 13.4 g/m*3 16.4 C 11.3 km/h
37 20-05-2022 05:25:00 16.4 C 13.4 g/m*3 16.4 C 8.1 km/h
38 20-05-2022 05:30:00 16.4 C 13.54 g/m*3 16.4 C 6.4 km/h
39 20-05-2022 05:35:00 16.4 C 13.4 g/m*3 16.4 C 0 km/h
40 20-05-2022 05:40:00 16.4 C 13.4 g/m*3 16.4 C 0 km/h
41 20-05-2022 05:45:00 16.4 C 13.4 g/m*3 16.4 C 0 km/h
42 20-05-2022 05:50:00 16.4 C 13.4 g/m*3 16.4 C 0 km/h
43 20-05-2022 05:55:00 16.4 C 13.4 g/m*3 16.4 C 0 km/h
44 20-05-2022 06:00:00 16.4 C 13.4 g/m*3 16.4 C 0 km/h
45 20-05-2022 06:05:00 16.4 C 13.4 g/m*3 16.4 C 0 km/h
46 20-05-2022 06:10:00 16.3 C 13.46 g/m*3 16.3 C 0 km/h
47 20-05-2022 06:15:00 16.3 C 13.46 g/m*3 16.3 C 0 km/h
48 20-05-2022 06:20:00 16.4 C 13.4 g/m*3 16.4 C 0 km/h
49 20-05-2022 06:25:00 16.4 C 13.4 g/m*3 16.4 C 0 km/h
50 20-05-2022 06:30:00 16.4 C 13.4 g/m*3 16.4 C 0 km/h
Sensor: Nr:Datum:Temp:Abs-Feuchte:Windchill:Wind:
Aussen-T/F 51 20-05-2022 06:35:00 16.4 C 13.54 g/m*3 16.4 C 0 km/h
52 20-05-2022 06:40:00 16.4 C 13.54 g/m*3 16.4 C 0 km/h
53 20-05-2022 06:45:00 16.5 C 13.62 g/m*3 16.5 C 0 km/h
54 20-05-2022 06:50:00 16.5 C 13.62 g/m*3 16.5 C 0 km/h
55 20-05-2022 06:55:00 16.6 C 13.7 g/m*3 16.6 C 0 km/h
56 20-05-2022 07:00:00 16.5 C 13.62 g/m*3 16.5 C 0 km/h
57 20-05-2022 07:05:00 16.6 C 13.7 g/m*3 16.6 C 8.1 km/h
58 20-05-2022 07:10:00 16.6 C 13.7 g/m*3 16.6 C 8.1 km/h
59 20-05-2022 07:15:00 16.7 C 13.79 g/m*3 16.7 C 4.8 km/h
60 20-05-2022 07:20:00 16.7 C 13.79 g/m*3 16.7 C 1.6 km/h
61 20-05-2022 07:25:00 16.7 C 13.79 g/m*3 16.7 C 0 km/h
62 20-05-2022 07:30:00 16.7 C 13.79 g/m*3 16.7 C 0 km/h
63 20-05-2022 07:35:00 16.8 C 13.87 g/m*3 16.8 C 1.6 km/h
64 20-05-2022 07:40:00 16.9 C 13.95 g/m*3 16.9 C 1.6 km/h
65 20-05-2022 07:45:00 16.9 C 13.95 g/m*3 16.9 C 0 km/h
66 20-05-2022 07:50:00 16.9 C 13.95 g/m*3 16.9 C 0 km/h
67 20-05-2022 07:55:00 17 C 14.04 g/m*3 17 C 0 km/h
68 20-05-2022 08:00:00 17.1 C 14.12 g/m*3 17.1 C 0 km/h
69 20-05-2022 08:05:00 17.2 C 14.2 g/m*3 17.2 C 0 km/h
70 20-05-2022 08:10:00 17.2 C 14.2 g/m*3 17.2 C 0 km/h
71 20-05-2022 08:15:00 17.1 C 14.12 g/m*3 17.1 C 1.6 km/h
72 20-05-2022 08:20:00 17.1 C 14.12 g/m*3 17.1 C 0 km/h
73 20-05-2022 08:25:00 17.1 C 14.12 g/m*3 17.1 C 0 km/h
74 20-05-2022 08:30:00 17.1 C 14.12 g/m*3 17.1 C 1.6 km/h
75 20-05-2022 08:35:00 17.1 C 14.12 g/m*3 17.1 C 0 km/h
Sensor: Nr:Datum:Temp:Abs-Feuchte:Windchill:Wind:
Aussen-T/F 76 20-05-2022 08:40:00 17.2 C 14.2 g/m*3 17.2 C 0 km/h
77 20-05-2022 08:45:00 17.2 C 14.2 g/m*3 17.2 C 0 km/h
78 20-05-2022 08:50:00 17.3 C 14.29 g/m*3 17.3 C 0 km/h
79 20-05-2022 08:55:00 17.4 C 14.38 g/m*3 17.4 C 0 km/h
80 20-05-2022 09:00:00 17.6 C 14.55 g/m*3 17.6 C 0 km/h
81 20-05-2022 09:05:00 17.7 C 14.64 g/m*3 17.7 C 0 km/h
82 20-05-2022 09:10:00 17.8 C 14.72 g/m*3 17.8 C 1.6 km/h
83 20-05-2022 09:15:00 17.9 C 14.81 g/m*3 17.9 C 0 km/h
84 20-05-2022 09:20:00 18.1 C 14.99 g/m*3 18.1 C 0 km/h
85 20-05-2022 09:25:00 18.1 C 14.99 g/m*3 18.1 C 0 km/h
86 20-05-2022 09:30:00 18.2 C 15.08 g/m*3 18.2 C 0 km/h
87 20-05-2022 09:35:00 18.2 C 15.08 g/m*3 18.2 C 0 km/h
88 20-05-2022 09:40:00 18.2 C 15.08 g/m*3 18.2 C 0 km/h

Legende:
   Min
   Max


Maximal/Minimal-Werte vom 20.05.2022 - 20.05.2022

Sensor Min Max Avg
Temp
(Aussen-T/F)
15.4 °C
20-05-2022  02:20:00
18.2 °C
20-05-2022  09:30:00
16.44 °C
Abs-Feuchte
(Aussen-T/F)
12.61 g/m*3
20-05-2022  02:20:00
15.08 g/m*3
20-05-2022  09:30:00
13.37 g/m*3
Windchill
(Aussen-T/F)
15.4 C
20-05-2022  02:20:00
18.2 C
20-05-2022  09:30:00
16.26 C

Die Daten stammen von einer Davis Vantage Pro 2 Wetter-Station und werden unter Linux mit der Software wview2wettercgi und aufbereitet. Alle Angaben erfolgen ohne Gewähr für ihre Vollständigkeit oder Richtigkeit.
Kontakt: Rainer Krienke krienke@uni-koblenz.de . Meine Webseiten an der Uni Koblenz oder privat.
Version: $Revision: 0.78 $